JBU18 KJFK-KBOS

Flight info

Callsign JBU18
Flight time N/A
Altitude 21000
Route MERIT ROBUC3
Aircraft A321/M-SDE3FGHIRWY/LB1

Departure

Time 2026-04-30 22:38
Airport John F. Kennedy International Airport (KJFK)

Arrival

Time N/A
Airport Boston Logan International Airport (KBOS)
Time Latitude Longitude Altitude Speed Heading
2026-04-30 22:12 40.64530 -73.77339 16 ft 0 kts 358°
2026-04-30 22:27 40.64509 -73.77338 18 ft 3 kts 358°
2026-04-30 22:28 40.64471 -73.77344 17 ft 3 kts 37°
2026-04-30 22:31 40.64475 -73.77335 17 ft 5 kts 58°
2026-04-30 22:32 40.64414 -73.77128 16 ft 8 kts 172°
2026-04-30 22:32 40.64290 -73.77211 17 ft 12 kts 210°
2026-04-30 22:33 40.64019 -73.77423 18 ft 18 kts 211°
2026-04-30 22:33 40.63802 -73.77594 16 ft 19 kts 212°
2026-04-30 22:34 40.63461 -73.77862 16 ft 18 kts 211°
2026-04-30 22:35 40.63320 -73.77832 20 ft 11 kts 121°
2026-04-30 22:36 40.63086 -73.77312 16 ft 23 kts 121°
2026-04-30 22:36 40.63012 -73.77153 16 ft 16 kts 120°
2026-04-30 22:37 40.62826 -73.77239 16 ft 11 kts 279°
2026-04-30 22:37 40.62842 -73.77278 16 ft 1 kts 300°
2026-04-30 22:37 40.63015 -73.77669 17 ft 88 kts 301°
2026-04-30 22:38 40.64035 -73.79946 100 ft 183 kts 295°
2026-04-30 22:38 40.64920 -73.83004 1295 ft 182 kts 266°
2026-04-30 22:39 40.64620 -73.84727 1434 ft 204 kts 239°
2026-04-30 22:39 40.60632 -73.87840 2643 ft 251 kts 173°
2026-04-30 22:40 40.57422 -73.82782 4772 ft 276 kts 88°
2026-04-30 22:41 40.60356 -73.76382 6878 ft 288 kts 47°
2026-04-30 22:41 40.63075 -73.72411 8297 ft 295 kts 47°
2026-04-30 22:42 40.68781 -73.64021 10348 ft 336 kts 47°
2026-04-30 22:43 40.72065 -73.59209 11037 ft 363 kts 47°
2026-04-30 22:43 40.74959 -73.55137 12038 ft 370 kts 39°
2026-04-30 22:44 40.79484 -73.51806 13229 ft 377 kts 25°
2026-04-30 22:45 40.89132 -73.45634 15523 ft 392 kts 24°
2026-04-30 22:45 40.94071 -73.42448 16676 ft 398 kts 24°
2026-04-30 22:46 40.99091 -73.39206 17811 ft 404 kts 23°
2026-04-30 22:47 41.09376 -73.32559 19749 ft 418 kts 23°
2026-04-30 22:47 41.14654 -73.29139 20665 ft 426 kts 23°
2026-04-30 22:48 41.19967 -73.25670 20848 ft 424 kts 23°
2026-04-30 22:49 41.27879 -73.20496 20838 ft 422 kts 23°
2026-04-30 22:49 41.35394 -73.14415 20847 ft 428 kts 45°
2026-04-30 22:50 41.39697 -72.99993 20849 ft 427 kts 83°
2026-04-30 22:51 41.40536 -72.92165 20829 ft 427 kts 83°
2026-04-30 22:51 41.41369 -72.84345 20837 ft 426 kts 83°
2026-04-30 22:52 41.41785 -72.80438 20840 ft 426 kts 83°
2026-04-30 22:52 41.42609 -72.72627 20842 ft 425 kts 84°
2026-04-30 22:53 41.43427 -72.64840 20844 ft 424 kts 84°
2026-04-30 22:53 41.44238 -72.57060 20846 ft 423 kts 84°
2026-04-30 22:53 41.44640 -72.53174 20845 ft 423 kts 84°
2026-04-30 22:54 41.45439 -72.45416 20840 ft 422 kts 84°
2026-04-30 22:55 41.46624 -72.33813 20837 ft 421 kts 84°
2026-04-30 22:55 41.47413 -72.26091 20831 ft 420 kts 84°
2026-04-30 22:56 41.48830 -72.18556 20827 ft 421 kts 67°
2026-04-30 22:56 41.52674 -72.08027 20828 ft 420 kts 64°
2026-04-30 22:57 41.55226 -72.01018 20723 ft 413 kts 65°
2026-04-30 22:57 41.57497 -71.94189 19090 ft 394 kts 70°
2026-04-30 22:58 41.59404 -71.87615 18115 ft 359 kts 71°
2026-04-30 22:59 41.61926 -71.78812 17135 ft 330 kts 71°
2026-04-30 22:59 41.64419 -71.70332 16309 ft 325 kts 70°